Albany, VT

1:39 AM EDT on August 26, 2016 (GMT -0400)
Newport State

Weather History for KEFK - July, 2013

Change the Weather History Date:

Wednesday, July 24, 2013

  Actual Average Record
Temperature  
Mean Temperature 60 °F -  
Max Temperature 66 °F 80 °F 91 °F (1979)
Min Temperature 53 °F 56 °F 44 °F (1981)
Degree Days  
Heating Degree Days 6    
Growing Degree Days 10 (Base 50)    
Moisture  
Dew Point 53 °F    
Average Humidity 78    
Maximum Humidity 90    
Minimum Humidity 65    
Precipitation  
Precipitation 0.00 in - - ()
Sea Level Pressure  
Sea Level Pressure 29.79 in    
Wind  
Wind Speed 6 mph (West)    
Max Wind Speed 13 mph    
Max Gust Speed 24 mph    
Visibility 10 miles    
Events Rain    
Averages and records for this station are not official NWS values.
T = Trace of Precipitation, MM = Missing Value Source: NWS Daily Summary

Daily Weather History Graph

Daily Weather History Graph

Search for Another Location

Airport or City:

Trip Planner

Search our weather history database for the weather conditions in past years. The results will help you decide how hot, cold, wet, or windy it might be!

Date:

Astronomy

Jul. 24, 2013 Rise Set
Actual Time 5:26 AM EDT 8:24 PM EDT
Civil Twilight 4:51 AM EDT 8:58 PM EDT
Nautical Twilight 4:07 AM EDT 9:42 PM EDT
Astronomical Twilight 3:14 AM EDT 10:35 PM EDT
Moon 9:18 PM EDT (7/24) 7:51 AM EDT (7/24)
Length of Visible Light 16h 07m
Length of Day
14h 58m
Waning Gibbous, 95% of the Moon is Illuminated
Jul 24
Waning Gibbous
Jul 29
Last Quarter
Aug 6
New
Aug 14
First Quarter
Aug 20
Full

Hourly Weather History & Observations

Time (EDT) Temp. Dew Point Humidity Pressure Visibility Wind Dir Wind Speed Gust Speed Precip Events Conditions
12:15 AM 65.3 °F 61.9 °F 89% 29.59 in 10.0 mi South 3.5 mph - N/A   Clear
12:35 AM 65.3 °F 61.9 °F 89% 29.59 in 10.0 mi South 3.5 mph - N/A   Clear
12:55 AM 65.3 °F 61.9 °F 89% 29.58 in 10.0 mi SSE 5.8 mph - N/A   Clear
1:15 AM 65.3 °F 62.1 °F 89% 29.58 in 10.0 mi Calm Calm - N/A   Clear
1:35 AM 64.9 °F 61.9 °F 90% 29.58 in 10.0 mi South 3.5 mph - N/A   Clear
1:55 AM 65.1 °F 61.7 °F 89% 29.58 in 10.0 mi South 4.6 mph - N/A   Clear
2:15 AM 64.6 °F 61.5 °F 90% 29.58 in 10.0 mi South 5.8 mph - N/A   Clear
2:35 AM 64.6 °F 61.7 °F 90% 29.58 in 10.0 mi South 4.6 mph - N/A   Mostly Cloudy
2:55 AM 64.9 °F 61.9 °F 90% 29.59 in 10.0 mi SSW 6.9 mph - N/A   Scattered Clouds
3:15 AM 65.5 °F 62.1 °F 89% 29.59 in 10.0 mi SSW 5.8 mph - N/A   Scattered Clouds
3:35 AM 66.4 °F 62.2 °F 86% 29.59 in 10.0 mi South 4.6 mph - N/A   Mostly Cloudy
3:55 AM 65.8 °F 61.9 °F 87% 29.58 in 10.0 mi SSW 3.5 mph - N/A   Mostly Cloudy
4:15 AM 65.3 °F 61.9 °F 89% 29.58 in 10.0 mi SSW 3.5 mph - N/A   Mostly Cloudy
4:35 AM 65.3 °F 61.9 °F 89% 29.60 in 10.0 mi SSW 4.6 mph - N/A Rain Rain
4:55 AM 65.1 °F 62.1 °F 90% 29.60 in 10.0 mi SSW 6.9 mph - N/A Rain Light Rain
5:15 AM 65.3 °F 61.9 °F 89% 29.60 in 5.0 mi South 5.8 mph - N/A Rain Rain
5:35 AM 64.9 °F 61.3 °F 88% 29.60 in 10.0 mi SSW 4.6 mph - N/A Rain Light Rain
5:55 AM 64.4 °F 60.8 °F 88% 29.60 in 10.0 mi South 6.9 mph - N/A   Light Drizzle
6:15 AM 64.4 °F 60.8 °F 88% 29.61 in 10.0 mi SW 4.6 mph - N/A   Overcast
6:35 AM 64.4 °F 60.8 °F 88% 29.63 in 7.0 mi SSW 6.9 mph - N/A Rain Rain
6:55 AM 64.0 °F 60.6 °F 89% 29.62 in 7.0 mi South 4.6 mph - N/A Rain Light Rain
7:15 AM 64.2 °F 60.8 °F 89% 29.62 in 10.0 mi South 4.6 mph - N/A   Overcast
7:35 AM 64.4 °F 60.8 °F 88% 29.63 in 10.0 mi Calm Calm - N/A   Overcast
7:55 AM 64.2 °F 60.8 °F 89% 29.65 in 5.0 mi WNW 10.4 mph - N/A Rain Rain
8:15 AM 62.1 °F 58.3 °F 87% 29.66 in 10.0 mi WNW 10.4 mph 24.2 mph N/A   Overcast
8:35 AM 61.7 °F 57.6 °F 86% 29.68 in 10.0 mi WNW 8.1 mph 16.1 mph N/A   Overcast
8:55 AM 60.8 °F 56.7 °F 86% 29.69 in 10.0 mi WNW 10.4 mph 18.4 mph N/A   Overcast
9:15 AM 59.9 °F 55.8 °F 86% 29.71 in 10.0 mi WNW 10.4 mph 16.1 mph N/A   Overcast
9:35 AM 59.9 °F 54.9 °F 83% 29.72 in 10.0 mi WNW 9.2 mph 16.1 mph N/A   Overcast
9:55 AM 59.9 °F 54.5 °F 82% 29.74 in 10.0 mi Calm Calm - N/A   Overcast
10:15 AM 59.0 °F 53.6 °F 82% 29.75 in 10.0 mi NW 5.8 mph - N/A   Overcast
10:35 AM 59.9 °F 53.8 °F 80% 29.76 in 10.0 mi NW 5.8 mph - N/A   Overcast
10:55 AM 60.8 °F 53.4 °F 77% 29.77 in 10.0 mi WNW 8.1 mph - N/A   Overcast
11:15 AM 60.3 °F 52.3 °F 75% 29.78 in 10.0 mi WNW 12.7 mph 16.1 mph N/A   Overcast
11:35 AM 61.3 °F 52.0 °F 71% 29.79 in 10.0 mi WNW 9.2 mph - N/A   Overcast
11:55 AM 61.3 °F 51.8 °F 71% 29.80 in 10.0 mi WNW 10.4 mph - N/A   Overcast
12:15 PM 59.9 °F 50.5 °F 71% 29.81 in 10.0 mi NW 6.9 mph - N/A   Overcast
12:35 PM 60.1 °F 50.2 °F 70% 29.83 in 10.0 mi WSW 9.2 mph - N/A   Overcast
12:55 PM 59.0 °F 48.7 °F 69% 29.83 in 10.0 mi NW 8.1 mph - N/A   Overcast
1:15 PM 58.1 °F 48.0 °F 69% 29.84 in 10.0 mi WNW 6.9 mph - N/A   Overcast
1:35 PM 59.2 °F 48.4 °F 67% 29.85 in 10.0 mi West 5.8 mph - N/A   Overcast
1:55 PM 59.4 °F 48.6 °F 67% 29.85 in 10.0 mi NW 8.1 mph - N/A   Overcast
2:15 PM 59.7 °F 48.7 °F 67% 29.85 in 10.0 mi NW 10.4 mph 16.1 mph N/A   Overcast
2:35 PM 59.5 °F 47.8 °F 65% 29.86 in 10.0 mi WNW 9.2 mph - N/A   Overcast
2:55 PM 58.5 °F 46.8 °F 65% 29.87 in 10.0 mi WNW 9.2 mph - N/A   Overcast
3:15 PM 58.1 °F 46.4 °F 65% 29.88 in 10.0 mi NW 10.4 mph - N/A   Overcast
3:35 PM 57.4 °F 45.7 °F 65% 29.89 in 10.0 mi WNW 11.5 mph - N/A   Overcast
3:55 PM 57.2 °F 45.7 °F 65% 29.89 in 10.0 mi NW 11.5 mph 19.6 mph N/A   Overcast
4:15 PM 56.5 °F 45.9 °F 68% 29.91 in 10.0 mi WNW 10.4 mph 17.3 mph N/A   Overcast
4:35 PM 55.9 °F 46.0 °F 69% 29.92 in 10.0 mi WNW 8.1 mph - N/A   Overcast
4:55 PM 55.4 °F 45.3 °F 69% 29.92 in 10.0 mi NW 9.2 mph - N/A   Overcast
5:15 PM 55.4 °F 45.5 °F 69% 29.93 in 10.0 mi NW 9.2 mph - N/A   Overcast
5:35 PM 55.4 °F 45.1 °F 68% 29.94 in 10.0 mi West 10.4 mph - N/A   Overcast
5:55 PM 55.0 °F 44.8 °F 68% 29.94 in 10.0 mi WNW 8.1 mph - N/A   Overcast
6:15 PM 54.9 °F 45.3 °F 70% 29.95 in 10.0 mi WNW 6.9 mph - N/A   Overcast
6:35 PM 54.9 °F 43.7 °F 66% 29.95 in 10.0 mi West 6.9 mph - N/A   Overcast
6:55 PM 54.9 °F 44.1 °F 67% 29.96 in 10.0 mi West 6.9 mph - N/A   Overcast
7:15 PM 54.7 °F 44.1 °F 67% 29.97 in 10.0 mi WNW 3.5 mph - N/A   Overcast
7:35 PM 54.9 °F 43.7 °F 66% 29.97 in 10.0 mi WNW 4.6 mph - N/A   Overcast
7:55 PM 54.5 °F 44.2 °F 68% 29.98 in 10.0 mi WNW 3.5 mph - N/A   Overcast
8:15 PM 54.1 °F 44.4 °F 70% 29.99 in 10.0 mi West 3.5 mph - N/A   Overcast
8:35 PM 54.0 °F 44.6 °F 71% 30.00 in 10.0 mi West 3.5 mph - N/A   Overcast
8:55 PM 54.0 °F 45.1 °F 72% 30.00 in 10.0 mi Calm Calm - N/A   Overcast
9:15 PM 53.8 °F 45.5 °F 74% 30.02 in 10.0 mi West 3.5 mph - N/A   Overcast
9:35 PM 54.0 °F 45.1 °F 72% 30.02 in 10.0 mi West 3.5 mph - N/A   Overcast
9:55 PM 53.8 °F 45.3 °F 73% 30.03 in 10.0 mi West 4.6 mph - N/A   Overcast
10:15 PM 53.8 °F 45.3 °F 73% 30.03 in 10.0 mi West 3.5 mph - N/A   Overcast
10:35 PM 53.6 °F 45.9 °F 75% 30.04 in 10.0 mi West 3.5 mph - N/A   Overcast
10:55 PM 53.8 °F 46.0 °F 75% 30.05 in 10.0 mi Calm Calm - N/A   Overcast
11:15 PM 53.6 °F 46.4 °F 77% 30.05 in 10.0 mi West 4.6 mph - N/A   Overcast
11:35 PM 53.6 °F 46.4 °F 77% 30.06 in 10.0 mi NW 3.5 mph - N/A   Overcast
11:55 PM 53.6 °F 45.9 °F 75% 30.07 in 10.0 mi NW 3.5 mph - N/A   Overcast